Skip Page Navigation
NASA JPL Caltech
NASA Logo - Jet Propulsion Laboratory + View the NASA Portal
+ Center for Near-Earth Object Studies
JPL Home Earth Solar System Stars & Galaxies Technology
JPL Solar System Dynamics
BODIES ORBITS EPHEMERIDES TOOLS PHYSICAL DATA DISCOVERY FAQ SITE MAP
IMPORTANT: The SSD Announcement email list is now available. Major changes are coming in the near future, including possible hostname and/or URL changes. To be notified of such changes, subscribe to this email list.

Please visit this page for more details.


JPL Small-Body Database Browser
Search: [ help ]  
183201 (2002 TE17)
Classification: Main-belt Asteroid          SPK-ID: 2183201
Ephemeris | Orbit Diagram | Orbital Elements | Mission Design | Physical Parameters | Discovery Circumstances ]

[ show orbit diagram ]
Orbital Elements at Epoch 2458600.5 (2019-Apr-27.0) TDB
Reference: JPL 9 (heliocentric ecliptic J2000)
 Element Value Uncertainty (1-sigma)   Units 
e .1874740270254063 7.0665e-08  
a 2.291570609261033 1.3327e-08 au
q 1.861960638929803 1.5667e-07 au
i 4.51649504992148 8.9934e-06 deg
node 207.2760916733226 5.276e-05 deg
peri 113.2133120396341 5.9469e-05 deg
M 312.4858744029334 3.0416e-05 deg
tp 2458767.731672323539
(2019-Oct-11.23167232)
0.00010786 TDB
period 1267.063242350623
3.47
1.1053e-05
3.026e-08
d
yr
n .2841215718105256 2.4785e-09 deg/d
Q 2.721180579592263 1.5825e-08 au
  Orbit Determination Parameters
   # obs. used (total)      352  
   data-arc span      8136 days (22.28 yr)  
   first obs. used      1995-10-19  
   last obs. used      2018-01-27  
   planetary ephem.      DE431  
   SB-pert. ephem.      SB431-N16  
   condition code      0  
   norm. resid. RMS      .53559  
   source      ORB  
   producer      Otto Matic  
   solution date      2018-Feb-06 07:57:34  

Additional Information
 Earth MOID = .854186 au 
 Jupiter MOID = 2.59935 au 
 T_jup = 3.570 
[ show covariance matrix ]

Ephemeris | Orbit Diagram | Orbital Elements | Mission Design | Physical Parameters | Discovery Circumstances ]

Physical Parameter Table
Parameter Symbol Value Units Sigma Reference Notes
absolute magnitude H 16.9   n/a MPO436905  
rotation period rot_per 1.33 h n/a LCDB (Rev. 2019-January); Warner et al., 2009 lower-limit; Incomplete or inconclusive result.
Published Reference List:
[Erasmus, N.; McNeill, A.; Mommert, M.; Trilling, D.E.; et al. (2018) Ap. J. Suppl. 237, A19.]

183201 (2002 TE17)          Discovered 2002-Oct-02 by LINEAR at Socorro
Reference: 20080420/Numbers.arcLast Updated: 2008-04-23
Ephemeris | Orbit Diagram | Orbital Elements | Mission Design | Physical Parameters | Discovery Circumstances ]
ABOUT SSD CREDITS/AWARDS PRIVACY/COPYRIGHT GLOSSARY LINKS
FirstGov
(server date/time)  
NASA Home Page
Site Manager:   Ryan S. Park
Webmaster  Alan B. Chamberlin